• In Czech Republic
  • List of Countries
  • For 7 days
  • Water Temperature
  • Satellite Maps
  • Weather Map
  • Weather Widgets
  • user-avatar
    Login

    Hourly Weather Garoua

    Today, 23 June, Saturday

    Time Temperature Precipitation Wind Pressure Humidity
    00:00 +28°C° 0.4 mm 1 mps 744 mmHg 74%
    01:00 +25°C° 0 mm 0 mps 744 mmHg 79%
    02:00 +25°C° 0.6 mm 0 mps 744 mmHg 80%
    03:00 +25°C° 0.6 mm 0 mps 744 mmHg 82%
    04:00 +25°C° 0.6 mm 0 mps 744 mmHg 83%
    05:00 +25°C° 0.2 mm 0 mps 744 mmHg 84%
    06:00 +25°C° 0.2 mm 0 mps 744 mmHg 84%
    07:00 +25°C° 0 mm 0 mps 744 mmHg 86%
    08:00 +28°C° 0.2 mm 1 mps 744 mmHg 80%
    09:00 +30°C° 0.2 mm 1 mps 744 mmHg 73%
    10:00 +31°C° 0.2 mm 1 mps 744 mmHg 67%
    11:00 +33°C° 0 mm 1 mps 743 mmHg 59%
    12:00 +35°C° 0 mm 1 mps 743 mmHg 51%
    13:00 +37°C° 0 mm 1 mps 742 mmHg 43%
    14:00 +37°C° 0 mm 1 mps 742 mmHg 43%
    15:00 +37°C° 0 mm 1 mps 741 mmHg 42%
    16:00 +34°C° 0 mm 0 mps 741 mmHg 42%
    17:00 +33°C° 0 mm 0 mps 741 mmHg 46%
    18:00 +31°C° 0 mm 0 mps 741 mmHg 50%
    19:00 +30°C° 0 mm 0 mps 741 mmHg 53%
    20:00 +31°C° 0 mm 1 mps 742 mmHg 55%
    21:00 +31°C° 0 mm 1 mps 742 mmHg 57%
    22:00 +30°C° 0 mm 1 mps 743 mmHg 59%
    23:00 +29°C° 0 mm 1 mps 742 mmHg 62%

    Tomorrow, 24 June, Sunday

    Time Temperature Precipitation Wind Pressure Humidity
    00:00 +29°C° 0 mm 1 mps 742 mmHg 65%
    01:00 +28°C° 0 mm 1 mps 742 mmHg 68%
    02:00 +28°C° 0.1 mm 1 mps 742 mmHg 71%
    03:00 +27°C° 0.1 mm 1 mps 742 mmHg 73%
    04:00 +27°C° 0.1 mm 1 mps 742 mmHg 76%
    05:00 +27°C° 0.1 mm 1 mps 743 mmHg 76%
    06:00 +27°C° 0.1 mm 2 mps 743 mmHg 76%
    07:00 +27°C° 0.1 mm 2 mps 743 mmHg 76%
    08:00 +29°C° 0 mm 2 mps 743 mmHg 70%
    09:00 +31°C° 0 mm 2 mps 744 mmHg 63%
    10:00 +34°C° 0 mm 2 mps 744 mmHg 57%
    11:00 +35°C° 0 mm 2 mps 743 mmHg 52%
    12:00 +36°C° 0 mm 2 mps 743 mmHg 47%
    13:00 +38°C° 0 mm 2 mps 742 mmHg 42%
    14:00 +37°C° 0 mm 1 mps 741 mmHg 41%
    15:00 +37°C° 0 mm 1 mps 740 mmHg 39%
    16:00 +36°C° 0 mm 0 mps 740 mmHg 38%
    17:00 +36°C° 0 mm 1 mps 740 mmHg 42%
    18:00 +34°C° 0 mm 1 mps 740 mmHg 47%
    19:00 +33°C° 0 mm 1 mps 740 mmHg 51%
    20:00 +32°C° 0.3 mm 1 mps 741 mmHg 55%
    21:00 +31°C° 0.3 mm 1 mps 741 mmHg 59%
    22:00 +30°C° 0.3 mm 1 mps 742 mmHg 64%
    23:00 +29°C° 0.1 mm 1 mps 742 mmHg 66%

    Day after tomorrow, 25 June, Monday

    Time Temperature Precipitation Wind Pressure Humidity
    00:00 +29°C° 0.1 mm 1 mps 742 mmHg 67%
    01:00 +29°C° 0.1 mm 1 mps 742 mmHg 69%
    02:00 +28°C° 0.5 mm 1 mps 741 mmHg 73%
    03:00 +27°C° 0.5 mm 1 mps 741 mmHg 76%
    04:00 +27°C° 0.5 mm 1 mps 741 mmHg 80%
    05:00 +27°C° 0 mm 1 mps 742 mmHg 79%
    06:00 +27°C° 0 mm 2 mps 742 mmHg 78%
    07:00 +28°C° 0 mm 2 mps 742 mmHg 77%
    08:00 +29°C° 0 mm 2 mps 743 mmHg 71%
    09:00 +31°C° 0 mm 2 mps 743 mmHg 64%
    10:00 +34°C° 0 mm 2 mps 743 mmHg 58%
    11:00 +35°C° 0 mm 2 mps 743 mmHg 54%
    12:00 +36°C° 0 mm 2 mps 742 mmHg 51%
    13:00 +37°C° 0 mm 2 mps 742 mmHg 47%
    14:00 +37°C° 0 mm 2 mps 741 mmHg 45%
    15:00 +38°C° 0 mm 2 mps 740 mmHg 43%
    16:00 +37°C° 0 mm 1 mps 740 mmHg 41%
    17:00 +35°C° 0.4 mm 1 mps 740 mmHg 49%
    18:00 +33°C° 0.4 mm 1 mps 740 mmHg 56%
    19:00 +31°C° 0.4 mm 1 mps 741 mmHg 64%
    20:00 +30°C° 0.7 mm 1 mps 741 mmHg 68%
    21:00 +29°C° 0.7 mm 1 mps 741 mmHg 72%
    22:00 +28°C° 0.7 mm 1 mps 741 mmHg 76%
    23:00 +28°C° 1.3 mm 1 mps 741 mmHg 79%

    26 June, Tuesday

    Time Temperature Precipitation Wind Pressure Humidity
    00:00 +27°C° 1.3 mm 1 mps 741 mmHg 82%
    01:00 +27°C° 1.3 mm 1 mps 741 mmHg 85%
    02:00 +27°C° 0 mm 1 mps 741 mmHg 85%
    03:00 +27°C° 0 mm 1 mps 740 mmHg 86%
    04:00 +27°C° 0 mm 1 mps 740 mmHg 86%
    05:00 +27°C° 0 mm 1 mps 741 mmHg 85%
    06:00 +27°C° 0 mm 1 mps 741 mmHg 84%
    07:00 +27°C° 0 mm 1 mps 742 mmHg 83%
    08:00 +29°C° 0.1 mm 1 mps 742 mmHg 76%
    09:00 +31°C° 0.1 mm 1 mps 742 mmHg 69%
    10:00 +32°C° 0.1 mm 1 mps 742 mmHg 62%
    11:00 +34°C° 0 mm 2 mps 742 mmHg 58%
    12:00 +35°C° 0 mm 2 mps 741 mmHg 54%
    13:00 +36°C° 0 mm 3 mps 741 mmHg 50%
    14:00 +37°C° 0 mm 2 mps 740 mmHg 49%
    15:00 +37°C° 0 mm 2 mps 740 mmHg 47%
    16:00 +37°C° 0 mm 2 mps 739 mmHg 46%
    17:00 +36°C° 0 mm 2 mps 740 mmHg 51%
    18:00 +34°C° 0 mm 2 mps 740 mmHg 56%
    19:00 +32°C° 0 mm 1 mps 740 mmHg 61%
    20:00 +31°C° 0 mm 1 mps 740 mmHg 64%
    21:00 +30°C° 0 mm 1 mps 741 mmHg 67%
    22:00 +30°C° 0 mm 1 mps 741 mmHg 70%
    23:00 +29°C° 0 mm 1 mps 741 mmHg 71%

    27 June, Wednesday

    Time Temperature Precipitation Wind Pressure Humidity
    00:00 +29°C° 0 mm 1 mps 741 mmHg 73%
    01:00 +28°C° 0 mm 1 mps 741 mmHg 75%
    02:00 +28°C° 0.4 mm 1 mps 741 mmHg 77%
    03:00 +28°C° 0.4 mm 1 mps 741 mmHg 79%
    04:00 +27°C° 0.4 mm 1 mps 741 mmHg 81%
    05:00 +27°C° 0.2 mm 2 mps 742 mmHg 80%
    06:00 +28°C° 0.2 mm 2 mps 742 mmHg 80%
    07:00 +28°C° 0.2 mm 2 mps 743 mmHg 79%
    08:00 +29°C° 0 mm 3 mps 743 mmHg 73%
    09:00 +31°C° 0 mm 3 mps 743 mmHg 67%
    10:00 +33°C° 0 mm 4 mps 743 mmHg 61%
    11:00 +34°C° 0.4 mm 3 mps 742 mmHg 57%
    12:00 +35°C° 0.4 mm 3 mps 742 mmHg 54%
    13:00 +36°C° 0.4 mm 2 mps 741 mmHg 50%
    14:00 +35°C° 0.9 mm 2 mps 741 mmHg 57%
    15:00 +32°C° 0.9 mm 2 mps 741 mmHg 65%
    16:00 +31°C° 0.9 mm 1 mps 740 mmHg 72%
    17:00 +30°C° 0 mm 1 mps 741 mmHg 75%
    18:00 +29°C° 0 mm 1 mps 741 mmHg 79%
    19:00 +28°C° 0 mm 1 mps 741 mmHg 82%
    20:00 +28°C° 0 mm 1 mps 742 mmHg 82%
    21:00 +28°C° 0 mm 1 mps 742 mmHg 82%
    22:00 +28°C° 0 mm 1 mps 743 mmHg 82%
    23:00 +27°C° 0.1 mm 1 mps 742 mmHg 84%

    28 June, Thursday

    Time Temperature Precipitation Wind Pressure Humidity
    00:00 +27°C° 0.1 mm 1 mps 742 mmHg 85%
    01:00 +26°C° 0.1 mm 1 mps 741 mmHg 86%
    02:00 +26°C° 0 mm 1 mps 742 mmHg 86%
    03:00 +26°C° 0 mm 1 mps 742 mmHg 86%
    04:00 +26°C° 0 mm 1 mps 742 mmHg 86%
    05:00 +26°C° 0 mm 1 mps 743 mmHg 85%
    06:00 +27°C° 0 mm 1 mps 743 mmHg 84%
    07:00 +27°C° 0 mm 2 mps 743 mmHg 83%
    08:00 +29°C° 0 mm 2 mps 743 mmHg 75%
    09:00 +31°C° 0 mm 2 mps 744 mmHg 67%
    10:00 +33°C° 0 mm 3 mps 744 mmHg 60%
    11:00 +35°C° 0 mm 3 mps 743 mmHg 54%
    12:00 +36°C° 0 mm 2 mps 742 mmHg 49%
    13:00 +37°C° 0 mm 2 mps 741 mmHg 44%
    14:00 +37°C° 0 mm 2 mps 741 mmHg 43%
    15:00 +38°C° 0 mm 2 mps 740 mmHg 42%
    16:00 +38°C° 0 mm 2 mps 740 mmHg 41%
    17:00 +36°C° 0.6 mm 2 mps 740 mmHg 47%
    18:00 +34°C° 0.6 mm 2 mps 740 mmHg 52%
    19:00 +32°C° 0.6 mm 2 mps 741 mmHg 58%
    20:00 +30°C° 5.7 mm 2 mps 741 mmHg 67%
    21:00 +29°C° 5.7 mm 2 mps 742 mmHg 76%
    22:00 +27°C° 5.7 mm 2 mps 742 mmHg 86%
    23:00 +27°C° 2.8 mm 1 mps 742 mmHg 87%
    Show more